Location: Chuathbaluk
(61.5726°N, 159.2454°W)
Time: 17:39:02
(UTC+00:00)

NOAA 15 - Pass Details

Date: 18 January 2021
Orbit: 798 x 812 km, 98.7° (Epoch: 05 March)

Event Time Altitude Azimuth Distance (km) Brightness Sun altitude
Rises 05:17:06 0° 173° (S) 3,302 7.8 -21.4°
Reaches altitude 10° 05:19:27 10° 177° (S) 2,377 7.0 -21.7°
Maximum altitude 05:24:39 60° 257° (WSW) 925 5.1 -22.3°
Drops below altitude 10° 05:29:54 10° 337° (NNW) 2,401 7.3 -23.0°
Sets 05:32:17 0° 341° (NNW) 3,338 8.0 -23.2°
